IZ0QWM-13 Scandriglia IT current weather conditions

sailwx.info

Wind from 300 at 0 knots gusting 0

Air temperature 35.0° C
Dewpoint 15.8° C

Last reported at 2017-Jul-20 13:04 UTC.
Time now 2017-Jul-20 14:37 UTC

Location: N 42°10' E 012°47'.
View on Google Maps.

See reports from other nearby stations

  
Tides and Currents Weather Stations Pressure Air Temp Water Temp Dewpoint Dewpoint Depression Visibility Wind Speed Wind Dir Waves Ship Positions
date/time (UTC)wind fromknots sea level pressurealtimeterstation pressurevisibilityair tempwater tempwave heightnotes
2017-Jul-20 13:04 300 0 gusting 0 35.0
2017-Jul-20 12:54 090 0 gusting 0 33.9
2017-Jul-20 12:44 090 0 gusting 0 33.9
2017-Jul-20 12:34 140 0 gusting 0 33.9
2017-Jul-20 12:24 140 0 gusting 0 33.9
2017-Jul-20 12:14 120 0 gusting 0 33.9
2017-Jul-20 12:04 090 0 gusting 0 33.9
2017-Jul-20 11:54 350 0 gusting 0 32.8
2017-Jul-20 11:44 350 0 gusting 0 32.8
2017-Jul-20 11:34 270 0 gusting 0 32.8
2017-Jul-20 11:24 290 1 gusting 1 32.8
2017-Jul-20 11:14 290 1 gusting 1 32.8
2017-Jul-20 11:04 270 0 gusting 0 32.2
2017-Jul-20 10:54 270 0 gusting 0 32.2
2017-Jul-20 10:44 270 0 gusting 0 32.2
2017-Jul-20 10:34 330 1 gusting 1 31.1
2017-Jul-20 10:24 330 1 gusting 1 31.1
2017-Jul-20 10:14 300 0 gusting 0 31.1
2017-Jul-20 10:04 170 0 gusting 0 31.1
2017-Jul-20 09:54 270 0 gusting 0 31.1
2017-Jul-20 09:44 270 0 gusting 0 31.1
2017-Jul-20 09:34 360 0 gusting 0 30.0
2017-Jul-20 09:24 360 0 gusting 0 30.0
2017-Jul-20 09:14 360 0 gusting 0 30.0
2017-Jul-20 09:04 28.9
2017-Jul-20 08:54 020 0 gusting 0 27.8
2017-Jul-20 08:44 320 0 gusting 0 25.0
2017-Jul-20 08:34 320 0 gusting 0 25.0
2017-Jul-20 08:24 300 0 gusting 0 25.0
2017-Jul-20 08:14 300 0 gusting 0 25.0
2017-Jul-20 08:04 290 0 gusting 0 23.9
2017-Jul-20 07:54 290 0 gusting 0 23.9
2017-Jul-20 07:44 290 0 gusting 0 23.9
2017-Jul-20 07:34 310 0 gusting 0 22.2
2017-Jul-20 07:24 310 0 gusting 0 22.2
2017-Jul-20 07:14 270 0 gusting 0 21.1
2017-Jul-20 07:04 270 0 gusting 0 21.1
2017-Jul-20 06:54 270 0 gusting 0 20.0
2017-Jul-20 06:44 270 0 gusting 0 17.8
2017-Jul-20 06:34 270 0 gusting 0 17.8
2017-Jul-20 06:24 270 0 gusting 0 17.8
2017-Jul-20 06:14 270 0 gusting 0 17.8
2017-Jul-20 06:04 270 0 gusting 0 17.8
2017-Jul-20 05:54 270 0 gusting 0 17.8
2017-Jul-20 05:44 270 0 gusting 0 17.2
2017-Jul-20 05:34 270 0 gusting 0 17.2
2017-Jul-20 05:24 270 0 gusting 0 17.2
2017-Jul-20 05:14 300 0 gusting 0 17.2
2017-Jul-20 05:04 270 0 gusting 0 17.2
2017-Jul-20 04:54 270 0 gusting 0 17.2
2017-Jul-20 04:44 270 0 gusting 0 17.2
2017-Jul-20 04:34 230 0 gusting 0 17.2
2017-Jul-20 04:24 230 0 gusting 0 17.2
2017-Jul-20 04:14 020 0 gusting 0 17.8
2017-Jul-20 04:04 010 0 gusting 0 17.8
2017-Jul-20 03:54 010 0 gusting 0 17.8
2017-Jul-20 03:44 010 0 gusting 0 17.8
2017-Jul-20 03:34 360 0 gusting 0 17.8
2017-Jul-20 03:24 360 0 gusting 0 17.8
2017-Jul-20 03:14 050 0 gusting 0 17.8
2017-Jul-20 03:04 050 0 gusting 0 17.8
2017-Jul-20 02:54 020 0 gusting 0 17.8
2017-Jul-20 02:44 020 0 gusting 0 17.8
2017-Jul-20 02:34 050 0 gusting 0 17.8
2017-Jul-20 02:24 050 0 gusting 0 17.8
2017-Jul-20 02:14 090 0 gusting 0 17.8
2017-Jul-20 02:04 090 0 gusting 0 17.8
2017-Jul-20 01:54 120 0 gusting 0 17.8
2017-Jul-20 01:44 120 0 gusting 0 17.8
2017-Jul-20 01:34 120 0 gusting 0 17.8
2017-Jul-20 01:24 030 0 gusting 0 17.8
2017-Jul-20 01:15 030 0 gusting 0 17.8
2017-Jul-20 01:04 090 0 gusting 0 17.8
2017-Jul-20 00:54 090 0 gusting 0 17.8
2017-Jul-20 00:44 090 0 gusting 0 17.8
2017-Jul-20 00:34 090 0 gusting 0 18.9
2017-Jul-20 00:24 050 0 gusting 0 18.9
2017-Jul-20 00:14 050 0 gusting 0 18.9
2017-Jul-20 00:04 020 0 gusting 0 18.9
2017-Jul-19 23:54 090 0 gusting 0 18.9
2017-Jul-19 23:44 090 0 gusting 0 18.9
2017-Jul-19 23:34 350 0 gusting 0 18.9
2017-Jul-19 23:24 350 0 gusting 0 18.9
2017-Jul-19 23:14 350 0 gusting 0 18.9
2017-Jul-19 23:03 270 0 gusting 0 20.0
2017-Jul-19 22:53 270 0 gusting 0 20.0
2017-Jul-19 22:43 270 0 gusting 0 20.0
2017-Jul-19 22:33 270 0 gusting 0 20.0
2017-Jul-19 22:23 270 0 gusting 0 20.0
2017-Jul-19 22:13 270 0 gusting 0 20.0
2017-Jul-19 22:03 270 0 gusting 0 21.1
2017-Jul-19 21:53 270 0 gusting 0 21.1
2017-Jul-19 21:43 270 0 gusting 0 21.1
2017-Jul-19 21:33 270 0 gusting 0 22.2
2017-Jul-19 21:23 270 0 gusting 0 22.2
2017-Jul-19 21:13 22.2
2017-Jul-19 21:03 22.2
2017-Jul-19 20:53 210 0 gusting 0 22.8
2017-Jul-19 20:43 210 0 gusting 0 22.8
2017-Jul-19 20:33 270 0 gusting 0 23.9
2017-Jul-19 20:23 270 0 gusting 0 23.9
2017-Jul-19 20:14 23.9
2017-Jul-19 20:03 23.9
2017-Jul-19 19:53 25.0
2017-Jul-19 19:43 25.0
2017-Jul-19 19:33 050 0 gusting 0 25.0
2017-Jul-19 19:23 050 0 gusting 0 25.0
2017-Jul-19 19:13 040 0 gusting 0 26.1
2017-Jul-19 19:03 050 0 gusting 0 26.1
2017-Jul-19 18:53 050 0 gusting 0 27.2
2017-Jul-19 18:43 050 0 gusting 0 27.2
2017-Jul-19 18:33 150 0 gusting 0 27.8
2017-Jul-19 18:23 150 0 gusting 0 27.8
2017-Jul-19 18:13 300 0 gusting 0 28.9
2017-Jul-19 18:03 300 0 gusting 0 28.9
2017-Jul-19 17:53 270 0 gusting 0 30.0
2017-Jul-19 17:43 270 0 gusting 0 30.0
2017-Jul-19 17:33 320 0 gusting 0 31.1
2017-Jul-19 17:23 320 0 gusting 0 31.1
2017-Jul-19 17:13 340 0 gusting 0 31.1
2017-Jul-19 17:03 090 0 gusting 0 31.1
2017-Jul-19 16:53 330 0 gusting 0 32.2
2017-Jul-19 16:43 330 0 gusting 0 32.2
2017-Jul-19 16:33 160 0 gusting 0 32.2
2017-Jul-19 16:24 050 0 gusting 0 32.2
2017-Jul-19 16:13 050 0 gusting 0 32.2
2017-Jul-19 16:03 300 0 gusting 0 32.2
2017-Jul-19 15:54 160 0 gusting 0 32.2
2017-Jul-19 15:44 160 0 gusting 0 32.2
2017-Jul-19 15:34 270 0 gusting 0 32.2
2017-Jul-19 15:24 270 0 gusting 0 32.2
2017-Jul-19 15:14 320 0 gusting 0 32.2
2017-Jul-19 15:04 140 0 gusting 0 32.8
2017-Jul-19 14:54 320 1 gusting 1 32.8
2017-Jul-19 14:44 320 1 gusting 1 32.8
2017-Jul-19 14:34 160 0 gusting 0 33.9
2017-Jul-19 14:24 160 0 gusting 0 33.9
2017-Jul-19 14:14 180 1 gusting 1 33.9
2017-Jul-19 14:04 190 1 gusting 1 33.9
2017-Jul-19 13:54 280 1 gusting 1 35.0
2017-Jul-19 13:44 280 1 gusting 1 35.0
2017-Jul-19 13:34 250 0 gusting 0 35.0
2017-Jul-19 13:24 250 0 gusting 0 35.0
2017-Jul-19 13:14 270 0 gusting 0 35.0
2017-Jul-19 13:04 230 0 gusting 0 35.0
2017-Jul-19 12:54 320 1 gusting 1 33.9
2017-Jul-19 12:44 320 1 gusting 1 33.9
2017-Jul-19 12:34 240 0 gusting 0 32.8
2017-Jul-19 12:24 240 0 gusting 0 32.8
2017-Jul-19 12:14 270 1 gusting 1 32.8
2017-Jul-19 12:04 290 1 gusting 1 32.8
2017-Jul-19 11:54 280 1 gusting 1 32.8
2017-Jul-19 11:44 280 1 gusting 1 32.8
2017-Jul-19 11:34 250 0 gusting 0 32.8
2017-Jul-19 11:24 250 0 gusting 0 32.8
2017-Jul-19 11:14 260 1 gusting 1 32.8
2017-Jul-19 11:04 250 1 gusting 1 32.8
2017-Jul-19 10:54 300 0 gusting 0 32.2
2017-Jul-19 10:44 300 0 gusting 0 32.2
2017-Jul-19 10:34 290 0 gusting 0 32.2
2017-Jul-19 10:24 290 0 gusting 0 32.2
2017-Jul-19 10:14 310 0 gusting 0 32.2
2017-Jul-19 10:04 31.1
2017-Jul-19 09:54 010 0 gusting 0 30.0
2017-Jul-19 09:44 010 0 gusting 0 30.0
2017-Jul-19 09:34 360 1 gusting 1 28.9
2017-Jul-19 09:24 360 1 gusting 1 28.9
2017-Jul-19 09:14 040 0 gusting 0 28.9
2017-Jul-19 09:04 010 1 gusting 1 28.9
2017-Jul-19 08:54 310 0 gusting 0 27.2
2017-Jul-19 08:44 310 0 gusting 0 27.2
2017-Jul-19 08:34 270 0 gusting 0 25.0
2017-Jul-19 08:24 270 0 gusting 0 25.0
2017-Jul-19 08:14 320 0 gusting 0 25.0
2017-Jul-19 08:04 270 0 gusting 0 25.0
2017-Jul-19 07:54 320 0 gusting 0 22.8
2017-Jul-19 07:44 320 0 gusting 0 22.8
2017-Jul-19 07:34 270 0 gusting 0 22.2
2017-Jul-19 07:24 270 0 gusting 0 22.2
2017-Jul-19 07:14 270 0 gusting 0 21.1
2017-Jul-19 07:04 270 0 gusting 0 21.1
2017-Jul-19 06:54 20.0
2017-Jul-19 06:44 20.0
2017-Jul-19 06:34 210 0 gusting 0 17.8
2017-Jul-19 06:24 210 0 gusting 0 17.8
2017-Jul-19 06:14 230 0 gusting 0 17.8
2017-Jul-19 06:04 200 0 gusting 0 17.2
2017-Jul-19 05:54 210 0 gusting 0 17.2
2017-Jul-19 05:44 210 0 gusting 0 17.2
2017-Jul-19 05:34 220 0 gusting 0 17.2
2017-Jul-19 05:24 220 0 gusting 0 17.2
2017-Jul-19 05:14 17.2
2017-Jul-19 05:04 190 0 gusting 0 16.1
2017-Jul-19 04:54 160 0 gusting 0 17.2
2017-Jul-19 04:44 160 0 gusting 0 17.2
2017-Jul-19 04:34 180 0 gusting 0 17.2
2017-Jul-19 04:24 180 0 gusting 0 17.2
2017-Jul-19 04:14 180 0 gusting 0 17.2
2017-Jul-19 04:04 180 0 gusting 0 17.2
2017-Jul-19 03:54 200 0 gusting 0 17.2
2017-Jul-19 03:44 200 0 gusting 0 17.2
2017-Jul-19 03:34 180 0 gusting 0 17.2
2017-Jul-19 03:24 180 0 gusting 0 17.2
2017-Jul-19 03:14 180 0 gusting 0 17.2
2017-Jul-19 03:04 230 0 gusting 0 17.2
2017-Jul-19 02:54 170 0 gusting 0 17.8
2017-Jul-19 02:44 170 0 gusting 0 17.8
2017-Jul-19 02:34 170 0 gusting 0 17.8
2017-Jul-19 02:24 170 0 gusting 0 17.8
2017-Jul-19 02:14 190 0 gusting 0 17.8
2017-Jul-19 02:04 180 0 gusting 0 17.8
2017-Jul-19 01:54 180 0 gusting 0 17.8
2017-Jul-19 01:44 180 0 gusting 0 17.8
2017-Jul-19 01:34 180 0 gusting 0 17.8
2017-Jul-19 01:24 180 0 gusting 0 17.8
2017-Jul-19 01:14 090 0 gusting 0 17.8
2017-Jul-19 01:04 050 0 gusting 0 17.8
2017-Jul-19 00:54 090 0 gusting 0 17.8
2017-Jul-19 00:44 090 0 gusting 0 17.8
2017-Jul-19 00:34 090 0 gusting 0 17.8
2017-Jul-19 00:24 090 0 gusting 0 17.8
2017-Jul-19 00:14 090 0 gusting 0 17.8
2017-Jul-19 00:04 050 0 gusting 0 18.9
2017-Jul-18 23:54 040 0 gusting 0 18.9
2017-Jul-18 23:44 040 0 gusting 0 18.9
2017-Jul-18 23:34 050 0 gusting 0 18.9
2017-Jul-18 23:24 050 0 gusting 0 18.9
2017-Jul-18 23:14 090 0 gusting 0 18.9
2017-Jul-18 23:04 090 0 gusting 0 18.9
2017-Jul-18 22:54 090 0 gusting 0 20.0
2017-Jul-18 22:44 090 0 gusting 0 20.0
2017-Jul-18 22:34 270 0 gusting 0 20.0
2017-Jul-18 22:24 270 0 gusting 0 20.0
2017-Jul-18 22:14 270 0 gusting 0 20.0
2017-Jul-18 22:04 270 0 gusting 0 21.1
2017-Jul-18 21:54 300 0 gusting 0 21.1
2017-Jul-18 21:44 23.9
2017-Jul-18 21:34 23.9
2017-Jul-18 21:24 23.9
2017-Jul-18 21:14 23.9
2017-Jul-18 21:04 23.9
2017-Jul-18 20:54 23.9
2017-Jul-18 20:44 23.9
2017-Jul-18 20:34 23.9
2017-Jul-18 20:24 23.9
2017-Jul-18 20:14 23.9
2017-Jul-18 20:04 23.9
2017-Jul-18 19:54 25.0
2017-Jul-18 19:44 25.0
2017-Jul-18 19:34 210 0 gusting 0 25.0
2017-Jul-18 19:24 210 0 gusting 0 25.0
2017-Jul-18 19:14 26.1
2017-Jul-18 19:04 26.1
2017-Jul-18 18:54 050 0 gusting 0 27.2
2017-Jul-18 18:44 050 0 gusting 0 27.2
2017-Jul-18 18:34 050 0 gusting 0 27.8
2017-Jul-18 18:24 050 0 gusting 0 27.8
2017-Jul-18 18:14 040 0 gusting 0 28.9
2017-Jul-18 18:04 080 0 gusting 0 28.9
2017-Jul-18 17:54 140 0 gusting 0 30.0
2017-Jul-18 17:44 140 0 gusting 0 30.0
2017-Jul-18 17:34 31.1
2017-Jul-18 17:24 31.1
2017-Jul-18 17:14 230 0 gusting 0 31.1
2017-Jul-18 17:04 250 0 gusting 0 31.1
2017-Jul-18 16:54 050 0 gusting 0 32.2
2017-Jul-18 16:44 050 0 gusting 0 32.2
2017-Jul-18 16:34 32.2
2017-Jul-18 16:24 350 0 gusting 0 32.2
2017-Jul-18 16:14 350 0 gusting 0 32.2
2017-Jul-18 16:04 240 0 gusting 0 32.8
2017-Jul-18 15:54 240 0 gusting 0 32.8
2017-Jul-18 15:44 240 0 gusting 0 32.8
2017-Jul-18 15:34 200 1 gusting 1 32.8
2017-Jul-18 15:24 200 1 gusting 1 32.8
2017-Jul-18 15:14 070 0 gusting 0 32.8
2017-Jul-18 15:04 340 1 gusting 1 33.9
2017-Jul-18 14:54 340 1 gusting 1 33.9
2017-Jul-18 14:44 320 0 gusting 0 33.9
2017-Jul-18 14:34 320 0 gusting 0 33.9
2017-Jul-18 14:24 140 1 gusting 1 33.9
2017-Jul-18 14:14 140 1 gusting 1 33.9
2017-Jul-18 14:04 270 0 gusting 0 35.0